Location: Bergen
(60.3910°N, 5.3250°E)
Time: 15:57:47
(UTC+02:00)

ISS - Pass Details

Date: 31 March 2019
Orbit: 408 x 410 km, 51.6° (Epoch: 25 April)

Event Time Altitude Azimuth Distance (km) Brightness Sun altitude
Rises 22:34:55 0° 259° (W) 2,339 0.6 -15.7°
Reaches altitude 10° 22:38:04 10° 227° (SW) 1,475 -0.9 -16.0°
Maximum altitude 22:39:22 12° 203° (SSW) 1,363 -1.4 -16.1°
Enters shadow 22:39:27 12° 202° (SSW) 1,364 -1.4 -16.1°
